When you browse on this site, cookies collect data to enhance your experience and personalize the content and advertising you see.
Visit our Privacy Policy to learn more. By continuing to use the site, you agree to this use of cookies and data.
  • In United Kingdom
  • List of Countries
  • For 7 days
  • Water Temperature
  • Satellite Maps
  • Weather Map
  • Weather Widgets
  • user-avatar
    Login

    Hourly Weather Abomey

    Today, 12 December, Wednesday

    Time Temperature Precipitation Wind Pressure Humidity
    00:00 +27°C° 0 mm 1 mps 740 mmHg 66%
    01:00 +27°C° 0.1 mm 1 mps 740 mmHg 69%
    02:00 +26°C° 0.1 mm 1 mps 740 mmHg 73%
    03:00 +26°C° 0.1 mm 1 mps 739 mmHg 76%
    04:00 +24°C° 0 mm 0 mps 739 mmHg 78%
    05:00 +23°C° 0 mm 0 mps 739 mmHg 79%
    06:00 +23°C° 0 mm 0 mps 740 mmHg 78%
    07:00 +26°C° 0 mm 0 mps 740 mmHg 68%
    08:00 +28°C° 0 mm 0 mps 740 mmHg 57%
    09:00 +31°C° 0 mm 0 mps 741 mmHg 47%
    10:00 +34°C° 0 mm 1 mps 741 mmHg 39%
    11:00 +36°C° 0 mm 1 mps 740 mmHg 30%
    12:00 +39°C° 0 mm 1 mps 740 mmHg 22%
    13:00 +39°C° 0 mm 1 mps 739 mmHg 22%
    14:00 +39°C° 0 mm 1 mps 739 mmHg 21%
    15:00 +39°C° 0 mm 1 mps 738 mmHg 21%
    16:00 +38°C° 0 mm 2 mps 738 mmHg 25%
    17:00 +36°C° 0 mm 2 mps 738 mmHg 30%
    18:00 +34°C° 0 mm 2 mps 738 mmHg 34%
    19:00 +32°C° 0 mm 2 mps 739 mmHg 43%
    20:00 +30°C° 0 mm 3 mps 740 mmHg 52%
    21:00 +29°C° 0 mm 3 mps 740 mmHg 61%
    22:00 +29°C° 0 mm 3 mps 740 mmHg 64%
    23:00 +28°C° 0 mm 3 mps 740 mmHg 67%

    Tomorrow, 13 December, Thursday

    Time Temperature Precipitation Wind Pressure Humidity
    00:00 +28°C° 0 mm 3 mps 740 mmHg 70%
    01:00 +27°C° 0 mm 2 mps 740 mmHg 72%
    02:00 +27°C° 0 mm 2 mps 740 mmHg 74%
    03:00 +26°C° 0 mm 1 mps 740 mmHg 76%
    04:00 +26°C° 0 mm 1 mps 740 mmHg 77%
    05:00 +26°C° 0 mm 1 mps 740 mmHg 79%
    06:00 +24°C° 0 mm 0 mps 740 mmHg 81%
    07:00 +28°C° 0 mm 1 mps 741 mmHg 71%
    08:00 +30°C° 0 mm 1 mps 741 mmHg 61%
    09:00 +32°C° 0 mm 1 mps 742 mmHg 51%
    10:00 +35°C° 0 mm 1 mps 741 mmHg 43%
    11:00 +37°C° 0 mm 1 mps 741 mmHg 35%
    12:00 +40°C° 0 mm 1 mps 741 mmHg 27%
    13:00 +40°C° 0 mm 1 mps 740 mmHg 26%
    14:00 +40°C° 0 mm 1 mps 739 mmHg 25%
    15:00 +40°C° 0 mm 1 mps 738 mmHg 24%
    16:00 +38°C° 0 mm 2 mps 738 mmHg 29%
    17:00 +36°C° 0 mm 2 mps 739 mmHg 34%
    18:00 +35°C° 0 mm 2 mps 739 mmHg 40%
    19:00 +33°C° 0 mm 3 mps 739 mmHg 49%
    20:00 +31°C° 0 mm 3 mps 740 mmHg 58%
    21:00 +29°C° 0 mm 3 mps 740 mmHg 68%
    22:00 +29°C° 0 mm 3 mps 740 mmHg 70%
    23:00 +28°C° 0 mm 2 mps 740 mmHg 72%

    Day after tomorrow, 14 December, Friday

    Time Temperature Precipitation Wind Pressure Humidity
    00:00 +28°C° 0 mm 2 mps 740 mmHg 75%
    01:00 +28°C° 0 mm 2 mps 740 mmHg 77%
    02:00 +27°C° 0 mm 1 mps 740 mmHg 79%
    03:00 +27°C° 0 mm 1 mps 739 mmHg 81%
    04:00 +27°C° 0 mm 1 mps 739 mmHg 82%
    05:00 +26°C° 0 mm 1 mps 740 mmHg 84%
    06:00 +26°C° 0 mm 1 mps 740 mmHg 86%
    07:00 +28°C° 0 mm 1 mps 741 mmHg 76%
    08:00 +30°C° 0 mm 1 mps 741 mmHg 67%
    09:00 +32°C° 0 mm 1 mps 742 mmHg 57%
    10:00 +34°C° 0 mm 1 mps 741 mmHg 48%
    11:00 +37°C° 0 mm 1 mps 741 mmHg 38%
    12:00 +40°C° 0 mm 1 mps 740 mmHg 29%
    13:00 +40°C° 0 mm 1 mps 740 mmHg 27%
    14:00 +40°C° 0 mm 1 mps 739 mmHg 25%
    15:00 +40°C° 0 mm 2 mps 738 mmHg 23%
    16:00 +38°C° 0 mm 2 mps 738 mmHg 29%
    17:00 +36°C° 0 mm 2 mps 738 mmHg 34%
    18:00 +35°C° 0 mm 3 mps 739 mmHg 40%
    19:00 +33°C° 0 mm 3 mps 739 mmHg 51%
    20:00 +31°C° 0 mm 3 mps 740 mmHg 62%
    21:00 +29°C° 0 mm 4 mps 740 mmHg 74%
    22:00 +29°C° 0 mm 3 mps 740 mmHg 75%
    23:00 +28°C° 0 mm 3 mps 740 mmHg 77%

    15 December, Saturday

    Time Temperature Precipitation Wind Pressure Humidity
    00:00 +28°C° 0 mm 3 mps 740 mmHg 78%
    01:00 +28°C° 0 mm 2 mps 740 mmHg 80%
    02:00 +27°C° 0 mm 2 mps 740 mmHg 82%
    03:00 +27°C° 0 mm 2 mps 739 mmHg 84%
    04:00 +27°C° 0 mm 1 mps 740 mmHg 86%
    05:00 +26°C° 0 mm 1 mps 740 mmHg 88%
    06:00 +26°C° 0 mm 1 mps 740 mmHg 90%
    07:00 +28°C° 0 mm 1 mps 741 mmHg 80%
    08:00 +30°C° 0 mm 1 mps 741 mmHg 71%
    09:00 +31°C° 0 mm 1 mps 742 mmHg 61%
    10:00 +34°C° 0 mm 1 mps 741 mmHg 51%
    11:00 +36°C° 0 mm 1 mps 741 mmHg 42%
    12:00 +40°C° 0 mm 1 mps 740 mmHg 32%
    13:00 +40°C° 0 mm 1 mps 739 mmHg 29%
    14:00 +40°C° 0 mm 1 mps 739 mmHg 26%
    15:00 +40°C° 0 mm 1 mps 738 mmHg 23%
    16:00 +37°C° 0 mm 1 mps 738 mmHg 27%
    17:00 +37°C° 0 mm 2 mps 738 mmHg 30%
    18:00 +35°C° 0 mm 2 mps 738 mmHg 34%
    19:00 +34°C° 0 mm 2 mps 739 mmHg 46%
    20:00 +31°C° 0 mm 3 mps 739 mmHg 57%
    21:00 +29°C° 0 mm 3 mps 740 mmHg 69%
    22:00 +29°C° 0 mm 3 mps 740 mmHg 72%
    23:00 +28°C° 0 mm 3 mps 740 mmHg 75%

    16 December, Sunday

    Time Temperature Precipitation Wind Pressure Humidity
    00:00 +28°C° 0 mm 3 mps 740 mmHg 79%
    01:00 +27°C° 0 mm 2 mps 739 mmHg 80%
    02:00 +27°C° 0 mm 2 mps 739 mmHg 82%
    03:00 +27°C° 0 mm 2 mps 739 mmHg 83%
    04:00 +27°C° 0 mm 2 mps 739 mmHg 84%
    05:00 +27°C° 0 mm 2 mps 740 mmHg 85%
    06:00 +26°C° 0 mm 1 mps 740 mmHg 86%
    07:00 +28°C° 0 mm 2 mps 740 mmHg 78%
    08:00 +29°C° 0 mm 2 mps 741 mmHg 71%
    09:00 +30°C° 0 mm 2 mps 742 mmHg 64%
    10:00 +34°C° 0 mm 2 mps 741 mmHg 54%
    11:00 +35°C° 0 mm 1 mps 740 mmHg 45%
    12:00 +37°C° 0 mm 1 mps 740 mmHg 36%
    13:00 +39°C° 0.1 mm 1 mps 739 mmHg 33%
    14:00 +39°C° 0.1 mm 1 mps 738 mmHg 31%
    15:00 +39°C° 0.1 mm 1 mps 738 mmHg 28%
    16:00 +37°C° 0 mm 2 mps 738 mmHg 35%
    17:00 +36°C° 0 mm 2 mps 738 mmHg 41%
    18:00 +34°C° 0 mm 3 mps 738 mmHg 47%
    19:00 +31°C° 0 mm 3 mps 739 mmHg 57%
    20:00 +30°C° 0 mm 3 mps 740 mmHg 66%
    21:00 +29°C° 0 mm 3 mps 740 mmHg 75%
    22:00 +28°C° 0 mm 3 mps 740 mmHg 77%
    23:00 +28°C° 0 mm 3 mps 740 mmHg 78%

    17 December, Monday

    Time Temperature Precipitation Wind Pressure Humidity
    00:00 +28°C° 0 mm 3 mps 740 mmHg 79%
    01:00 +27°C° 0 mm 2 mps 739 mmHg 81%
    02:00 +27°C° 0 mm 2 mps 739 mmHg 83%
    03:00 +27°C° 0 mm 2 mps 739 mmHg 85%
    04:00 +27°C° 0 mm 2 mps 739 mmHg 85%
    05:00 +26°C° 0 mm 2 mps 739 mmHg 85%
    06:00 +26°C° 0 mm 2 mps 740 mmHg 86%
    07:00 +28°C° 0 mm 2 mps 740 mmHg 78%
    08:00 +30°C° 0 mm 2 mps 741 mmHg 70%
    09:00 +31°C° 0 mm 2 mps 741 mmHg 62%
    10:00 +34°C° 0.1 mm 2 mps 741 mmHg 54%
    11:00 +36°C° 0.1 mm 2 mps 740 mmHg 47%
    12:00 +36°C° 0.1 mm 1 mps 740 mmHg 40%
    13:00 +37°C° 0 mm 2 mps 739 mmHg 39%
    14:00 +37°C° 0 mm 2 mps 738 mmHg 39%
    15:00 +37°C° 0 mm 2 mps 738 mmHg 38%
    16:00 +36°C° 0 mm 2 mps 738 mmHg 42%
    17:00 +34°C° 0 mm 3 mps 738 mmHg 46%
    18:00 +33°C° 0 mm 3 mps 739 mmHg 50%
    19:00 +31°C° 0 mm 3 mps 739 mmHg 56%
    20:00 +30°C° 0 mm 3 mps 739 mmHg 62%
    21:00 +29°C° 0 mm 3 mps 740 mmHg 68%
    22:00 +29°C° 0 mm 3 mps 740 mmHg 70%
    23:00 +28°C° 0 mm 3 mps 740 mmHg 72%
    Show more